KK4OHF Weather Reports


time (UTC)temp
C
wind
direction
speed
KPH
gust
KPH
rain 1hr
cm
rain 24hr
cm
rain mn
cm
humidity
%
barometer
mb
20260509041005 13 218 0.0 0.0 0.00 0.00 0.00 91 1013.1
20260509040505 13 218 0.0 0.0 0.00 0.00 0.00 91 1013.1
20260509040005 13 218 0.0 0.0 0.00 0.00 0.00 91 1013.1
20260509035505 13 218 0.0 0.0 0.00 0.00 0.00 91 1013.1
20260509035006 13 218 0.0 0.0 0.00 0.00 0.00 91 1013.1
20260509034504 13 218 0.0 0.0 0.00 0.00 0.00 91 1013.1
20260509034006 13 218 0.0 0.0 0.00 0.00 0.00 91 1013.1
20260509033006 13 218 0.0 0.0 0.00 0.00 0.00 90 1013.1
20260509032505 13 218 0.0 0.0 0.00 0.00 0.00 90 1013.1
20260509032006 13 218 0.0 0.0 0.00 0.00 0.00 90 1013.1
20260509031506 13 218 0.0 0.0 0.00 0.00 0.00 90 1013.1
20260509031005 13 218 0.0 0.0 0.00 0.00 0.00 90 1013.1
20260509030505 13 218 0.0 0.0 0.00 0.00 0.00 90 1013.1
20260509030005 13 218 0.0 0.0 0.00 0.00 0.00 89 1012.9
20260509025505 13 218 0.0 0.0 0.00 0.00 0.00 89 1012.9
20260509025005 13 218 0.0 0.0 0.00 0.00 0.00 89 1012.9
20260509024506 13 218 0.0 0.0 0.00 0.00 0.00 89 1012.9
20260509024005 14 218 0.0 0.0 0.00 0.00 0.00 89 1012.9
20260509023005 14 218 0.0 0.0 0.00 0.00 0.00 88 1012.9
20260509022006 14 218 0.0 0.0 0.00 0.00 0.00 88 1012.9
20260509021506 14 218 0.0 0.0 0.00 0.00 0.00 88 1012.9
20260509021006 15 218 0.0 0.0 0.00 0.00 0.00 88 1012.9
20260509020505 15 218 0.0 0.0 0.00 0.00 0.00 87 1012.9
20260509020005 15 218 0.0 0.0 0.00 0.00 0.00 87 1012.9
20260509015504 15 218 0.0 0.0 0.00 0.00 0.00 86 1012.9
20260509014506 15 218 0.0 0.0 0.00 0.00 0.00 83 1012.9
20260509014005 16 218 0.0 0.0 0.00 0.00 0.00 82 1012.9
20260509013006 16 218 0.0 0.0 0.00 0.00 0.00 82 1012.9
20260509012506 16 218 0.0 0.0 0.00 0.00 0.00 83 1012.9
20260509012005 16 218 0.0 0.0 0.00 0.00 0.00 83 1012.9
20260509011005 16 218 0.0 0.0 0.00 0.00 0.00 80 1012.9
20260509010505 16 218 0.0 0.0 0.00 0.00 0.00 80 1012.9
20260509010005 16 218 0.0 0.0 0.00 0.00 0.00 79 1012.9
20260509005505 16 218 0.0 0.0 0.00 0.00 0.00 79 1012.9
20260509005006 16 218 0.0 0.0 0.00 0.00 0.00 79 1012.9
20260509004006 16 218 0.0 0.0 0.00 0.00 0.00 78 1012.9
20260509003505 16 218 0.0 0.0 0.00 0.00 0.00 78 1012.9
20260509002505 16 218 0.0 0.0 0.00 0.00 0.00 78 1012.9
20260509002005 16 218 0.0 0.0 0.00 0.00 0.00 79 1012.9
20260509001505 17 218 0.0 0.0 0.00 0.00 0.00 79 1012.9
20260509001005 17 218 0.0 0.0 0.00 0.00 0.00 79 1012.9
20260509000505 17 218 0.0 0.0 0.00 0.00 0.00 79 1012.9
20260508235505 17 218 0.0 0.0 0.00 0.00 0.00 79 1012.9
20260508235005 17 218 0.0 0.0 0.00 0.00 0.00 79 1012.9
20260508234505 17 218 0.0 0.0 0.00 0.00 0.00 77 1012.9
20260508234005 17 218 0.0 0.0 0.00 0.00 0.00 76 1012.9
20260508233505 17 218 0.0 0.0 0.00 0.00 0.00 75 1012.9
20260508232005 18 138 0.0 0.0 0.00 0.00 0.00 74 1012.9
20260508231504 18 138 0.0 0.0 0.00 0.00 0.00 72 1012.9
20260508231005 18 138 0.0 0.0 0.00 0.00 0.00 72 1012.9
20260508230505 18 138 0.0 0.0 0.00 0.00 0.00 70 1012.9
20260508230005 18 138 0.0 0.0 0.00 0.00 0.00 68 1012.9
20260508225505 18 138 0.0 0.0 0.00 0.00 0.00 68 1012.9
20260508224505 18 138 0.0 0.0 0.00 0.00 0.00 67 1012.9
20260508224005 18 138 0.0 0.0 0.00 0.00 0.00 66 1013.2
20260508222505 19 128 0.0 0.0 0.00 0.00 0.00 62 1013.2
20260508222005 19 219 0.0 0.0 0.00 0.00 0.00 63 1013.2
20260508221505 19 128 0.0 0.0 0.00 0.00 0.00 63 1013.2
20260508221006 19 290 0.0 0.0 0.00 0.00 0.00 62 1013.2
20260508220506 20 244 0.0 0.0 0.00 0.00 0.00 61 1013.2
20260508220005 20 143 0.0 0.0 0.00 0.00 0.00 60 1013.2
20260508215504 20 145 0.0 0.0 0.00 0.00 0.00 61 1013.2
20260508214506 20 340 0.0 0.0 0.00 0.00 0.00 60 1013.2
20260508214005 20 327 0.0 0.0 0.00 0.00 0.00 60 1013.2
20260508213505 20 50 0.0 0.0 0.00 0.00 0.00 62 1013.2
20260508213005 20 0 0.0 0.0 0.00 0.00 0.00 60 1013.2
20260508212506 20 338 0.0 0.0 0.00 0.00 0.00 58 1013.2
20260508212005 20 96 0.0 1.6 0.00 0.00 0.00 58 1013.2
20260508211504 20 136 0.0 0.0 0.00 0.00 0.00 59 1013.2
20260508211007 20 139 0.0 0.0 0.00 0.00 0.00 58 1013.2
20260508210505 20 96 0.0 0.0 0.00 0.00 0.00 59 1013.2
20260508210006 20 155 0.0 0.0 0.00 0.00 0.00 59 1013.1
20260508205505 20 74 0.0 0.0 0.00 0.00 0.00 58 1013.1
20260508205006 21 156 0.0 0.0 0.00 0.00 0.00 57 1013.1
20260508204505 21 186 0.0 0.0 0.00 0.00 0.00 54 1013.1
20260508203505 21 117 0.0 0.0 0.00 0.00 0.00 55 1013.1
20260508202505 21 190 0.0 0.0 0.00 0.00 0.00 53 1013.1
20260508202006 21 150 0.0 0.0 0.00 0.00 0.00 54 1013.1
20260508201505 21 133 0.0 0.0 0.00 0.00 0.00 52 1013.1
20260508201005 21 136 0.0 3.2 0.00 0.00 0.00 51 1013.1
20260508200005 21 60 0.0 0.0 0.00 0.00 0.00 54 1013.1
20260508195506 21 114 0.0 0.0 0.00 0.00 0.00 52 1013.1
20260508195005 21 114 0.0 0.0 0.00 0.00 0.00 51 1013.1
20260508194506 21 114 0.0 0.0 0.00 0.00 0.00 53 1013.1
20260508193505 21 105 0.0 0.0 0.00 0.00 0.00 51 1013.6
20260508193006 21 118 0.0 0.0 0.00 0.00 0.00 50 1013.9
20260508192505 21 101 0.0 0.0 0.00 0.00 0.00 50 1013.9
20260508191505 21 103 0.0 0.0 0.00 0.00 0.00 50 1013.9
20260508191005 22 108 0.0 0.0 0.00 0.00 0.00 51 1013.9
20260508185505 22 127 0.0 3.2 0.00 0.00 0.00 50 1015.2
20260508184505 22 28 0.0 4.8 0.00 0.00 0.00 51 1015.2
20260508184007 21 262 1.6 4.8 0.00 0.00 0.00 48 1015.2
20260508183505 22 82 0.0 0.0 0.00 0.00 0.00 51 1015.2
20260508183006 22 201 0.0 0.0 0.00 0.00 0.00 46 1015.2
20260508182505 22 250 0.0 0.0 0.00 0.00 0.00 46 1015.2
20260508182007 22 196 0.0 0.0 0.00 0.00 0.00 50 1015.2
20260508181506 22 77 0.0 0.0 0.00 0.00 0.00 50 1015.2
20260508180504 21 12 0.0 0.0 0.00 0.00 0.00 47 1015.2
20260508180005 22 101 0.0 0.0 0.00 0.00 0.00 47 1015.2
20260508175505 21 313 0.0 0.0 0.00 0.00 0.00 50 1015.2
20260508175005 21 146 0.0 0.0 0.00 0.00 0.00 49 1015.2
20260508174505 21 24 0.0 0.0 0.00 0.00 0.00 48 1015.2
20260508174005 21 352 0.0 0.0 0.00 0.00 0.00 48 1015.2
20260508173005 21 22 0.0 0.0 0.00 0.00 0.00 49 1015.2
20260508172505 21 346 0.0 0.0 0.00 0.00 0.00 46 1015.2
20260508172005 21 277 0.0 1.6 0.00 0.00 0.00 46 1015.2
20260508171005 21 19 0.0 0.0 0.00 0.00 0.00 48 1017.3
20260508170506 20 15 0.0 0.0 0.00 0.00 0.00 48 1017.3
20260508170006 21 38 0.0 0.0 0.00 0.00 0.00 51 1017.3
20260508165505 21 107 0.0 1.6 0.00 0.00 0.00 47 1017.3
20260508165005 21 91 0.0 3.2 0.00 0.00 0.00 53 1017.3
20260508164506 21 19 0.0 0.0 0.00 0.00 0.00 51 1017.3
20260508164005 20 224 0.0 0.0 0.00 0.00 0.00 51 1017.3
20260508163505 20 134 0.0 0.0 0.00 0.00 0.00 54 1017.3
20260508162505 19 45 0.0 0.0 0.00 0.00 0.00 53 1017.3
20260508162006 20 19 0.0 0.0 0.00 0.00 0.00 50 1017.3
20260508161505 20 123 0.0 0.0 0.00 0.00 0.00 52 1017.3
20260508161005 20 120 1.6 9.7 0.00 0.00 0.00 49 1017.3
20260508160505 19 93 0.0 0.0 0.00 0.00 0.00 55 1017.3
20260508160005 18 11 0.0 0.0 0.00 0.00 0.00 52 1017.3
20260508155004 19 5 0.0 0.0 0.00 0.00 0.00 51 1017.3
20260508154505 19 232 0.0 0.0 0.00 0.00 0.00 55 1017.3
20260508154005 18 136 0.0 0.0 0.00 0.00 0.00 62 1017.3
20260508153504 18 144 0.0 0.0 0.00 0.00 0.00 62 1017.3
20260508152005 17 144 0.0 0.0 0.00 0.03 0.00 61 1017.3
20260508151504 17 121 0.0 0.0 0.00 0.03 0.00 61 1017.3
20260508151006 17 38 0.0 0.0 0.00 0.03 0.00 65 1017.3
20260508150506 17 38 0.0 0.0 0.00 0.03 0.00 67 1017.3
20260508150005 17 38 0.0 0.0 0.00 0.03 0.00 67 1017.3
20260508145505 17 355 0.0 0.0 0.00 0.03 0.00 67 1017.3
20260508144505 16 115 0.0 0.0 0.00 0.03 0.00 69 1017.3
20260508144005 16 115 0.0 0.0 0.00 0.05 0.00 69 1017.3
20260508143505 16 115 0.0 0.0 0.00 0.05 0.00 72 1017.3
20260508143005 16 115 0.0 0.0 0.00 0.05 0.00 73 1017.3
20260508142505 16 115 0.0 0.0 0.00 0.05 0.00 75 1017.3
20260508142005 16 115 0.0 0.0 0.00 0.05 0.00 77 1017.3
20260508141505 15 115 0.0 0.0 0.00 0.05 0.00 75 1017.3
20260508141005 15 134 0.0 0.0 0.00 0.08 0.00 78 1017.3
20260508140505 15 86 0.0 0.0 0.00 0.08 0.00 82 1017.3
20260508140007 15 86 0.0 0.0 0.00 0.08 0.00 83 1017.3
20260508135506 14 82 0.0 0.0 0.00 0.08 0.00 83 1017.3
20260508135005 14 15 0.0 0.0 0.00 0.08 0.00 83 1017.3
20260508134505 13 15 0.0 0.0 0.00 0.13 0.00 83 1017.3
20260508134005 13 15 0.0 0.0 0.00 0.13 0.00 83 1017.3
20260508133506 13 15 0.0 0.0 0.00 0.13 0.00 83 1017.3
20260508133005 13 15 0.0 0.0 0.00 0.13 0.00 86 1017.3
20260508131005 12 290 0.0 0.0 0.00 0.13 0.00 91 1017.3
20260508130005 12 290 0.0 0.0 0.00 0.13 0.00 91 1015.9
20260508125504 11 290 0.0 0.0 0.00 0.15 0.00 92 1015.9
20260508125005 11 290 0.0 0.0 0.00 0.15 0.00 92 1015.9
20260508124505 11 290 0.0 0.0 0.00 0.15 0.00 92 1015.9
20260508124005 11 290 0.0 0.0 0.00 0.15 0.00 92 1015.9
20260508123006 11 290 0.0 0.0 0.00 0.15 0.00 93 1015.9
20260508122506 10 290 0.0 0.0 0.00 0.15 0.00 93 1015.9
20260508122005 10 290 0.0 0.0 0.00 0.15 0.00 93 1015.9
20260508121505 10 290 0.0 0.0 0.00 0.15 0.00 93 1015.9
20260508121005 9 290 0.0 0.0 0.00 0.15 0.00 93 1015.9
20260508120505 9 290 0.0 0.0 0.00 0.15 0.00 93 1015.9
20260508120006 9 290 0.0 0.0 0.00 0.15 0.00 93 1015.9
20260508115505 9 290 0.0 0.0 0.00 0.15 0.00 93 1015.9
20260508115005 8 290 0.0 0.0 0.00 0.18 0.00 93 1015.9
20260508114504 8 290 0.0 0.0 0.00 0.18 0.00 92 1015.9
20260508114006 8 290 0.0 0.0 0.00 0.18 0.00 92 1015.9
20260508113504 8 290 0.0 0.0 0.00 0.18 0.00 92 1015.9
20260508113006 8 290 0.0 0.0 0.00 0.18 0.00 92 1015.9
20260508112505 8 290 0.0 0.0 0.00 0.18 0.00 92 1015.9
20260508112005 8 290 0.0 0.0 0.00 0.18 0.00 92 1014.2
20260508111505 8 290 0.0 0.0 0.00 0.18 0.00 92 1014.2
20260508111005 8 290 0.0 0.0 0.00 0.18 0.00 92 1014.2
20260508110505 8 290 0.0 0.0 0.00 0.18 0.00 92 1014.2
20260508105505 8 290 0.0 0.0 0.00 0.18 0.00 92 1014.2
20260508105005 8 290 0.0 0.0 0.00 0.18 0.00 92 1014.2
20260508104504 8 290 0.0 0.0 0.00 0.20 0.00 92 1014.2
20260508103505 9 290 0.0 0.0 0.00 0.20 0.00 92 1014.2
20260508102505 9 290 0.0 0.0 0.00 0.20 0.00 92 1014.2
20260508102005 9 290 0.0 0.0 0.00 0.20 0.00 92 1014.2
20260508101505 9 290 0.0 0.0 0.00 0.20 0.00 92 1014.2
20260508101005 9 290 0.0 0.0 0.00 0.23 0.00 92 1014.2
20260508100505 9 290 0.0 0.0 0.00 0.25 0.00 92 1014.2
20260508100005 9 290 0.0 0.0 0.00 0.25 0.00 92 1014.2
20260508095506 9 290 0.0 0.0 0.00 0.25 0.00 92 1014.2
20260508095005 9 290 0.0 0.0 0.00 0.25 0.00 92 1014.2
20260508094505 10 290 0.0 0.0 0.00 0.25 0.00 92 1014.2
20260508093505 10 290 0.0 0.0 0.00 0.25 0.00 92 1014.2
20260508093006 10 290 0.0 0.0 0.00 0.25 0.00 92 1014.2
20260508092505 10 290 0.0 0.0 0.00 0.25 0.00 92 1014.2
20260508092005 10 290 0.0 0.0 0.00 0.25 0.00 92 1014.2
20260508091506 10 290 0.0 0.0 0.00 0.25 0.00 92 1014.2
20260508091006 10 290 0.0 0.0 0.00 0.25 0.00 92 1014.2
20260508090505 10 290 0.0 0.0 0.00 0.25 0.00 92 1014.2
20260508090005 10 290 0.0 0.0 0.00 0.25 0.00 92 1014.2
20260508085505 10 290 0.0 0.0 0.00 0.25 0.00 92 1014.2
20260508085006 10 290 0.0 0.0 0.00 0.25 0.00 92 1014.2
20260508084505 10 290 0.0 0.0 0.00 0.25 0.00 92 1014.2
20260508084005 10 290 0.0 0.0 0.00 0.25 0.00 92 1014.2
20260508083506 11 290 0.0 0.0 0.00 0.28 0.00 92 1014.2
20260508083006 11 290 0.0 0.0 0.00 0.28 0.00 92 1013.8
20260508082506 11 290 0.0 0.0 0.00 0.33 0.00 92 1013.8
20260508082005 11 290 0.0 0.0 0.00 0.36 0.00 91 1013.8
20260508081505 11 290 0.0 0.0 0.00 0.41 0.00 91 1013.8
20260508081006 11 290 0.0 0.0 0.00 0.43 0.00 92 1013.8
20260508080505 11 290 0.0 0.0 0.00 0.48 0.00 92 1013.8
20260508080005 11 290 0.0 0.0 0.00 0.51 0.00 91 1013.8
20260508075505 11 290 0.0 0.0 0.00 0.58 0.00 91 1013.8
20260508075006 11 290 0.0 0.0 0.00 0.61 0.00 91 1013.8
20260508074505 11 290 0.0 0.0 0.00 0.64 0.00 91 1013.8
20260508074005 11 290 0.0 0.0 0.00 0.66 0.00 91 1013.8
20260508073505 11 290 0.0 0.0 0.00 0.71 0.00 91 1013.8
20260508073005 11 290 0.0 0.0 0.00 0.74 0.00 91 1013.8
20260508072005 11 290 0.0 0.0 0.00 0.81 0.00 91 1013.8
20260508071504 11 290 0.0 0.0 0.00 0.84 0.00 91 1013.8
20260508071006 11 290 0.0 0.0 0.00 0.89 0.00 91 1014.5
20260508070505 11 290 0.0 0.0 0.00 0.94 0.00 91 1014.5
20260508070005 11 290 0.0 0.0 0.00 0.97 0.00 91 1014.5
20260508065006 12 290 0.0 0.0 0.00 1.24 0.00 91 1014.5
20260508064505 12 290 0.0 0.0 0.00 1.35 0.00 91 1014.5
20260508064005 12 290 0.0 0.0 0.00 1.35 0.00 91 1014.5
20260508063506 12 290 0.0 0.0 0.00 1.37 0.00 91 1014.5
20260508063007 12 290 0.0 0.0 0.00 1.37 0.00 91 1014.5
20260508062505 12 290 0.0 0.0 0.00 1.40 0.00 91 1014.5
20260508061505 12 290 0.0 0.0 0.00 1.40 0.00 91 1014.5
20260508061007 12 290 0.0 0.0 0.00 1.40 0.00 91 1014.6
20260508060506 12 290 0.0 0.0 0.00 1.40 0.00 91 1014.6
20260508060005 12 290 0.0 0.0 0.00 1.40 0.00 91 1014.6
20260508055504 12 290 0.0 0.0 0.00 1.40 0.00 91 1014.6
20260508055005 12 290 0.0 0.0 0.00 1.40 0.00 91 1014.6
20260508054505 12 290 0.0 0.0 0.00 1.42 0.00 91 1014.6
20260508054005 12 290 0.0 0.0 0.00 1.42 0.00 91 1014.6
20260508053005 12 290 0.0 0.0 0.00 1.45 0.00 91 1011.9
20260508052505 12 290 0.0 0.0 0.00 1.50 0.00 91 1011.9
20260508052006 12 290 0.0 0.0 0.00 1.57 0.00 91 1011.9
20260508051505 12 290 0.0 0.0 0.00 1.57 0.00 91 1011.9
20260508051005 12 290 0.0 3.2 0.00 1.57 0.00 91 1011.9
20260508050505 12 290 0.0 3.2 0.00 1.57 0.00 90 1011.9
20260508050005 12 290 0.0 0.0 0.00 1.57 0.00 90 1011.9
20260508045505 13 290 0.0 0.0 0.00 1.57 0.00 90 1011.9
20260508044505 13 290 0.0 0.0 0.00 1.57 0.00 90 1011.9
20260508044005 13 290 0.0 0.0 0.00 1.57 0.00 90 1011.9
20260508043006 13 290 0.0 0.0 0.00 1.60 0.00 90 1011.9
20260508042505 13 290 0.0 0.0 0.00 1.60 0.00 90 1011.9